[[{"header":{"parameterUnit":"m.s-1","parameterCategory":1,"la1":30.2991,"la2":30.254,"lo1":-89.0895,"lo2":-89.0444,"dy":0.0017,"dx":0.0017,"nx":28,"ny":28,"refTime":"2024-02-10T03:00:00:Z","depth":0,"parameterNumber":2,"parameterNumberName":"U-component_of_WINDS"},"data":[0,0,0,0,0,0,0,0,0,0,0,0,0,0,0,0,0,0,0,0,0,0,0,0,0,0,0,0,0,0,0,0,0,0,0,0,0,0,0,0,0,0,0,0,0,0,0,0,0,0,0,0,0,0,0,0,0,0,-0.6099,-0.6099,0,-0.6075,-0.6075,-0.6074,-0.6066,-0.6066,-0.6066,-0.6066,-0.6041,-0.6041,-0.604,0,0,0,0,0,0,0,0,0,0,0,0,0,-0.6137,-0.6136,-0.6099,-0.6099,-0.6098,-0.6075,-0.6075,-0.6074,-0.6066,-0.6066,-0.6066,-0.6066,-0.6042,-0.6041,-0.604,0,0,0,0,0,0,0,0,0,0,0,0,0,-0.6117,-0.6136,-0.6099,-0.6091,-0.609,-0.6075,-0.6075,-0.6074,-0.6066,-0.6066,-0.6066,-0.6066,-0.6042,-0.6041,-0.604,-0.603,0,0,-0.6036,-0.6036,0,0,0,0,0,0,0,0,-0.6119,-0.6116,-0.6093,-0.6092,-0.6091,-0.6073,-0.6079,-0.6059,-0.6066,-0.6075,-0.6066,-0.6066,-0.6052,-0.605,-0.6045,-0.6029,-0.6028,-0.6036,-0.6036,-0.6035,-0.6035,0,0,0,0,0,0,0,-0.612,-0.6117,-0.6089,-0.6092,-0.6091,-0.6089,-0.6086,-0.6075,-0.6063,-0.6074,-0.6073,-0.6071,-0.6051,-0.6046,-0.6045,-0.6028,-0.6036,-0.6035,-0.6035,-0.6034,-0.6003,-0.6002,0,0,0,0,0,0,-0.6123,-0.6118,-0.609,-0.6089,-0.6105,-0.6088,-0.6085,-0.6079,-0.6063,-0.6061,-0.6071,-0.607,-0.6048,-0.6046,-0.6044,-0.6031,-0.6035,-0.6034,-0.6034,-0.6003,-0.6003,-0.6002,0,0,0,0,0,0,-0.6123,-0.612,-0.6091,-0.6103,-0.6099,-0.6087,-0.608,-0.6078,-0.6073,-0.606,-0.6058,-0.6068,-0.6048,-0.6045,-0.6034,-0.603,-0.6034,-0.6033,-0.6003,-0.6003,-0.6002,-0.6007,0,0,0,0,0,0,-0.6125,-0.6121,-0.6117,-0.6103,-0.6099,-0.6082,-0.608,-0.6078,-0.6071,-0.6071,-0.6057,-0.6055,-0.6048,-0.6035,-0.6033,-0.6029,-0.6032,-0.6003,-0.6003,-0.6003,-0.6007,-0.6007,-0.6007,0,0,0,0,0,-0.6126,-0.6119,-0.6117,-0.6113,-0.6094,-0.6081,-0.6079,-0.6071,-0.6071,-0.6067,-0.6059,-0.6055,-0.6031,-0.6034,-0.6031,-0.6027,-0.6003,-0.6003,-0.6003,-0.6007,-0.6007,-0.6007,0,0,0,0,0,0,-0.6133,-0.6117,-0.6114,-0.6103,-0.6094,-0.608,-0.6075,-0.6071,-0.6061,-0.6061,-0.6052,-0.6049,-0.6038,-0.6031,-0.6035,-0.6017,-0.6017,-0.6016,-0.6022,-0.6021,-0.6021,-0.6023,-0.6031,0,0,0,0,0,-0.6134,-0.6125,-0.6111,-0.6103,-0.6098,-0.6087,-0.6082,-0.6076,-0.6066,-0.6062,-0.6053,-0.6043,-0.6033,-0.6027,-0.6017,-0.6006,-0.6003,-0.6002,-0.6002,-0.6001,-0.6001,-0.5994,-0.5993,-0.6001,-0.6001,-0.6001,0,0,-0.6134,-0.6124,-0.6119,-0.6104,-0.6096,-0.6087,-0.6084,-0.6075,-0.6067,-0.606,-0.6049,-0.6042,-0.603,-0.6019,-0.6013,-0.6013,-0.5998,-0.6001,-0.6001,-0.6,-0.5993,-0.5992,-0.5992,-0.6001,-0.6001,-0.6001,0,0,-0.613,-0.6122,-0.6114,-0.6106,-0.6093,-0.6086,-0.6084,-0.6071,-0.6066,-0.6054,-0.6049,-0.604,-0.6024,-0.6015,-0.6009,-0.6001,-0.5998,-0.5999,-0.5998,-0.5991,-0.599,-0.599,-0.5987,-0.5986,-0.5998,-0.5998,-0.5998,0,-0.6133,-0.6118,-0.611,-0.6101,-0.6094,-0.6087,-0.6078,-0.6071,-0.6056,-0.6051,-0.6051,-0.603,-0.6022,-0.6008,-0.6006,-0.6001,-0.5998,-0.6,-0.5991,-0.599,-0.599,-0.5987,-0.5985,-0.5998,-0.5998,-0.5998,-0.5998,0,-0.6122,-0.6112,-0.6106,-0.6092,-0.6085,-0.6076,-0.6066,-0.6059,-0.6054,-0.6047,-0.6035,-0.6025,-0.6013,-0.6009,-0.6004,-0.5994,-0.5995,-0.5993,-0.5993,-0.5989,-0.5986,-0.5985,-0.5998,-0.5998,-0.5998,-0.5998,0,0,-0.6122,-0.6102,-0.6101,-0.6094,-0.6079,-0.6072,-0.6062,-0.605,-0.6044,-0.6035,-0.6026,-0.6012,-0.601,-0.6003,-0.5997,-0.5992,-0.5986,-0.5991,-0.599,-0.599,-0.5973,-0.5974,-0.5973,-0.5983,-0.5983,-0.5983,-0.5974,0,-0.6116,-0.6098,-0.609,-0.6076,-0.6067,-0.606,-0.6051,-0.6042,-0.6035,-0.6026,-0.6018,-0.6008,-0.6007,-0.6002,-0.5996,-0.5988,-0.5982,-0.5988,-0.5975,-0.5975,-0.5978,-0.5972,-0.5973,-0.5965,-0.5973,-0.5973,-0.5973,0,-0.6107,-0.6096,-0.6081,-0.6067,-0.6063,-0.6056,-0.6044,-0.6035,-0.6024,-0.6019,-0.6011,-0.6005,-0.5995,-0.5996,-0.5981,-0.5985,-0.5979,-0.5974,-0.5974,-0.5972,-0.5973,-0.5969,-0.5963,-0.5961,-0.5971,-0.5971,-0.5971,0,-0.6108,-0.609,-0.6078,-0.6073,-0.6057,-0.6051,-0.6045,-0.6033,-0.6026,-0.6016,-0.6011,-0.6,-0.5993,-0.5985,-0.5976,-0.5978,-0.5962,-0.5962,-0.5958,-0.5958,-0.5954,-0.5955,-0.5946,-0.5951,-0.5951,-0.5951,-0.5951,0,-0.6102,-0.6093,-0.6079,-0.6072,-0.6061,-0.6052,-0.6042,-0.6034,-0.6024,-0.6015,-0.6009,-0.6001,-0.599,-0.5981,-0.5974,-0.5963,-0.596,-0.5956,-0.5954,-0.5956,-0.5957,-0.5952,-0.5952,-0.5951,-0.5951,-0.5951,-0.5951,0,-0.6101,-0.6092,-0.6078,-0.6064,-0.606,-0.6053,-0.604,-0.6033,-0.6026,-0.6015,-0.6011,-0.6,-0.5988,-0.5979,-0.5964,-0.596,-0.5947,-0.5946,-0.5951,-0.595,-0.5946,-0.5946,-0.5934,-0.5931,-0.5938,-0.5938,-0.5938,0,-0.6098,-0.6091,-0.6075,-0.6068,-0.6061,-0.6051,-0.6044,-0.6034,-0.6027,-0.6013,-0.6007,-0.5995,-0.5985,-0.5967,-0.5957,-0.5946,-0.5943,-0.594,-0.5942,-0.5944,-0.5943,-0.5943,-0.5942,-0.594,-0.594,-0.594,-0.594,0,-0.6093,-0.6088,-0.6078,-0.6065,-0.6056,-0.6046,-0.6036,-0.6031,-0.602,-0.6012,-0.6,-0.5992,-0.5976,-0.5964,-0.5952,-0.5944,-0.594,-0.5939,-0.5937,-0.5939,-0.5942,-0.594,-0.595,-0.5939,-0.5939,-0.5939,-0.5939,-0.5939,-0.609,-0.6083,-0.6071,-0.6059,-0.605,-0.6041,-0.6033,-0.6024,-0.6014,-0.6,-0.5995,-0.5983,-0.5971,-0.5954,-0.5946,-0.5937,-0.5936,-0.5934,-0.5933,-0.5932,-0.5932,-0.5944,-0.5934,-0.5934,-0.5934,-0.5934,-0.5934,0,-0.6084,-0.6076,-0.6065,-0.6051,-0.6041,-0.6038,-0.6026,-0.6019,-0.6008,-0.5997,-0.5987,-0.5973,-0.5961,-0.595,-0.5938,-0.5932,-0.5929,-0.5929,-0.5929,-0.5927,-0.5934,-0.5936,-0.5931,-0.5931,-0.5931,-0.5931,-0.5931,-0.5931,-0.608,-0.6068,-0.6062,-0.6045,-0.6036,-0.6023,-0.6017,-0.6008,-0.5999,-0.5984,-0.5974,-0.5967,-0.5956,-0.5943,-0.5931,-0.5929,-0.5924,-0.5924,-0.5921,-0.5927,-0.5927,-0.5927,-0.593,-0.5923,-0.5923,-0.5915,-0.5915,-0.5915]},{"header":{"parameterUnit":"m.s-1","parameterCategory":1,"la1":30.2991,"la2":30.254,"lo1":-89.0895,"lo2":-89.0444,"dy":0.0017,"dx":0.0017,"nx":28,"ny":28,"refTime":"2024-02-10T03:00:00:Z","depth":0,"parameterNumber":3,"parameterNumberName":"V-component_of_WINDS"},"data":[0,0,0,0,0,0,0,0,0,0,0,0,0,0,0,0,0,0,0,0,0,0,0,0,0,0,0,0,0,0,0,0,0,0,0,0,0,0,0,0,0,0,0,0,0,0,0,0,0,0,0,0,0,0,0,0,0,0,1.4232,1.4234,0,1.434,1.4341,1.4342,1.4401,1.4401,1.4401,1.4401,1.4514,1.4516,1.4519,0,0,0,0,0,0,0,0,0,0,0,0,0,1.4081,1.4084,1.4232,1.4234,1.4235,1.434,1.4341,1.4343,1.4401,1.4401,1.4401,1.4401,1.4513,1.4516,1.4519,0,0,0,0,0,0,0,0,0,0,0,0,0,1.4164,1.4085,1.4232,1.4277,1.4282,1.4339,1.4341,1.4343,1.4401,1.4401,1.4401,1.4401,1.4511,1.4516,1.452,1.4542,0,0,1.4533,1.4535,0,0,0,0,0,0,0,0,1.4159,1.4169,1.4269,1.4274,1.4279,1.4357,1.4329,1.441,1.4401,1.4356,1.4401,1.4401,1.4461,1.447,1.449,1.4548,1.4552,1.4533,1.4536,1.4538,1.4539,0,0,0,0,0,0,0,1.4153,1.4165,1.4275,1.427,1.4277,1.4292,1.4304,1.4345,1.4406,1.4359,1.4364,1.4376,1.4464,1.4485,1.4493,1.4554,1.4533,1.4537,1.454,1.4541,1.4638,1.4638,0,0,0,0,0,0,1.414,1.416,1.4272,1.4278,1.4218,1.4295,1.4308,1.4332,1.4406,1.4417,1.4375,1.4378,1.4478,1.4488,1.4497,1.453,1.4538,1.4542,1.4544,1.4638,1.4638,1.4638,0,0,0,0,0,0,1.4136,1.4149,1.4267,1.422,1.4236,1.4297,1.4323,1.4334,1.4355,1.4418,1.4429,1.4385,1.4478,1.4491,1.4531,1.4534,1.4544,1.4548,1.4638,1.4638,1.4638,1.4594,0,0,0,0,0,0,1.4132,1.4148,1.4156,1.422,1.4239,1.4298,1.4324,1.4336,1.4362,1.4366,1.443,1.4441,1.448,1.4524,1.4535,1.454,1.4551,1.4638,1.4638,1.4638,1.4595,1.4592,1.459,0,0,0,0,0,1.4126,1.4139,1.4156,1.4169,1.425,1.4298,1.4309,1.4353,1.4362,1.4371,1.4412,1.4439,1.4532,1.4528,1.4541,1.4547,1.4638,1.4638,1.4638,1.4597,1.4593,1.459,0,0,0,0,0,0,1.4074,1.4148,1.4168,1.4202,1.4243,1.4308,1.4321,1.4347,1.4387,1.439,1.4443,1.4457,1.4492,1.4524,1.4518,1.4574,1.4588,1.4591,1.4552,1.4549,1.4546,1.4538,1.4555,0,0,0,0,0,1.4067,1.4099,1.4162,1.4186,1.4206,1.426,1.4282,1.4312,1.4358,1.4376,1.442,1.4463,1.4503,1.4528,1.4567,1.46,1.4616,1.4611,1.4608,1.4606,1.4608,1.4629,1.4628,1.4638,1.4638,1.4638,0,0,1.4052,1.4096,1.4113,1.4177,1.4212,1.4246,1.4274,1.4308,1.4333,1.4381,1.4422,1.4455,1.4508,1.4545,1.4564,1.4573,1.4608,1.4606,1.4603,1.4607,1.4629,1.4628,1.4627,1.4638,1.4638,1.4638,0,0,1.4042,1.4077,1.4102,1.4137,1.4191,1.4227,1.4233,1.4294,1.4318,1.436,1.4397,1.4429,1.4495,1.4531,1.4559,1.4563,1.459,1.4575,1.4561,1.4581,1.458,1.458,1.4583,1.4583,1.4576,1.4576,1.4576,0,1.4016,1.4067,1.4112,1.4144,1.4171,1.4216,1.4242,1.4274,1.4338,1.4357,1.4366,1.4451,1.4489,1.4536,1.4538,1.4558,1.4567,1.4568,1.4577,1.4577,1.4577,1.4581,1.4581,1.4574,1.4574,1.4575,1.4575,0,1.4034,1.4068,1.4082,1.4142,1.4172,1.42,1.4251,1.4276,1.4303,1.4339,1.4381,1.4429,1.448,1.4493,1.4521,1.4545,1.4549,1.4566,1.4582,1.4573,1.4578,1.4579,1.4571,1.4572,1.4573,1.4573,0,0,1.3994,1.4079,1.4083,1.4112,1.4175,1.4203,1.4235,1.4284,1.4304,1.4347,1.4376,1.4432,1.4449,1.448,1.4512,1.453,1.4532,1.4546,1.4548,1.4542,1.4564,1.4551,1.4551,1.455,1.4551,1.4551,1.456,0,1.3994,1.4051,1.4093,1.4135,1.4169,1.4212,1.424,1.4282,1.4317,1.4351,1.439,1.4429,1.4447,1.4467,1.4486,1.4528,1.4537,1.4528,1.4579,1.458,1.4565,1.4554,1.454,1.4545,1.4562,1.4562,1.4562,0,1.4001,1.4042,1.4087,1.4148,1.4163,1.4187,1.4237,1.4268,1.4318,1.4342,1.4377,1.441,1.4447,1.4458,1.4511,1.4503,1.4527,1.4551,1.4552,1.4559,1.4571,1.4561,1.4548,1.4549,1.4565,1.4565,1.4565,0,1.3969,1.4035,1.4072,1.4094,1.4166,1.4182,1.4212,1.4262,1.4289,1.4333,1.4351,1.4398,1.4425,1.4461,1.4507,1.4511,1.4555,1.457,1.4577,1.4576,1.4585,1.4584,1.4577,1.4599,1.4599,1.4599,1.4598,0,1.3964,1.3991,1.4058,1.408,1.4112,1.4161,1.4191,1.4225,1.4269,1.43,1.4341,1.4369,1.4427,1.4463,1.4499,1.4538,1.4549,1.457,1.458,1.4567,1.4565,1.4584,1.4585,1.4599,1.4599,1.4599,1.4599,0,1.3934,1.398,1.4022,1.4086,1.4103,1.4124,1.4179,1.4203,1.424,1.4279,1.4291,1.4349,1.4393,1.4442,1.4503,1.4527,1.4564,1.4577,1.4547,1.4553,1.4558,1.4557,1.4563,1.4567,1.4585,1.4585,1.4584,0,1.3929,1.395,1.4016,1.4039,1.4069,1.4105,1.4134,1.4183,1.4211,1.4269,1.4287,1.4334,1.4375,1.4444,1.4492,1.454,1.4555,1.4554,1.4562,1.4549,1.4556,1.4555,1.4558,1.4551,1.4551,1.455,1.455,0,1.3915,1.3937,1.3975,1.4022,1.4054,1.4093,1.4134,1.4151,1.4209,1.4239,1.4284,1.4315,1.4378,1.4425,1.4478,1.4512,1.4541,1.4547,1.4551,1.4539,1.4521,1.4532,1.4541,1.4547,1.4547,1.4547,1.4548,1.4548,1.3898,1.392,1.397,1.4011,1.4047,1.4085,1.4111,1.4151,1.4189,1.4243,1.4271,1.4316,1.4367,1.4442,1.4474,1.4512,1.4521,1.4527,1.4529,1.453,1.4527,1.4515,1.4522,1.4522,1.4522,1.4522,1.4522,0,1.3888,1.3922,1.396,1.4016,1.4049,1.4073,1.412,1.4146,1.4186,1.423,1.4269,1.4322,1.4369,1.4421,1.4471,1.4491,1.4506,1.4502,1.4502,1.4509,1.4515,1.4507,1.4489,1.4489,1.4489,1.4489,1.4489,1.4489,1.3886,1.3924,1.3952,1.4008,1.4043,1.4088,1.4113,1.4148,1.4184,1.4241,1.428,1.4313,1.4361,1.4415,1.4459,1.4473,1.449,1.4483,1.4501,1.4506,1.4509,1.4511,1.4504,1.4486,1.4486,1.4493,1.4493,1.4493]}]]